Location: Newark
(46.1292°N, 1.0086°W)
Time: 20:05:20
(UTC+00:00)

Vanguard 3 - Pass Details

Date: 15 November 2019
Orbit: 508 x 3263 km, 33.3° (Epoch: 06 December)

Event Time Altitude Azimuth Distance (km) Brightness Sun altitude
Rises 17:19:26 0° 256° (WSW) 7,167 14.4 -8.4°
Reaches altitude 10° 17:24:45 10° 252° (WSW) 5,983 13.3 -9.3°
Maximum altitude 17:41:09 48° 187° (S) 2,855 10.0 -12.0°
Drops below altitude 10° 17:51:25 10° 117° (ESE) 3,860 10.1 -13.7°
Enters shadow 17:52:16 - 115° (ESE) 4,062 10.2 -13.9°
Sets 17:54:05 0° 111° (ESE) 4,532 - -14.2°
